Location: Peterborough
(44.3091°N, 78.3197°W)
Time: 06:44:21
(UTC-04:00)

A-11 Canister half - Pass Details

Date: 27 March 2023
Orbit: 1513 x 1686 km, 47.2° (Epoch: 04 June)

Event Time Altitude Azimuth Distance (km) Brightness Sun altitude
Rises 00:40:33 0° 268° (W) 4,850 11.7 -42.4°
Reaches altitude 10° 00:43:40 10° 270° (W) 3,885 11.2 -42.5°
Enters shadow 00:48:58 37° 278° (W) 2,384 9.9 -42.7°
Exits shadow 01:02:05 17° 81° (E) 3,391 10.7 -43.0°
Drops below altitude 10° 01:03:57 10° 83° (E) 3,953 11.1 -43.1°
Sets 01:07:09 0° 85° (E) 4,939 11.7 -43.1°
